Lake Mead Weather Center

Moon Phase Calendar



Lake Mead Water Level
Online Cameras

 


      

Current Conditions in Meadview
12/2/2022 9:17:39 PM

52°F
Feels Like 50
Clouds
Humidity
59%
Pressure
30.12"
Wind
0.7 mph (SE)
Dew Point
38°F
UV Index
0/10 (Low)
Visibility
6 mi

Hourly Forecast

Date & Time Fri, Dec 2
9:00 PM
Fri, Dec 2
10:00 PM
Fri, Dec 2
11:00 PM
Sat, Dec 3
12:00 AM
Sat, Dec 3
1:00 AM
Sat, Dec 3
2:00 AM
Sat, Dec 3
3:00 AM
Sat, Dec 3
4:00 AM
Sat, Dec 3
5:00 AM
Sat, Dec 3
6:00 AM
Sat, Dec 3
7:00 AM
Sat, Dec 3
8:00 AM
Sat, Dec 3
9:00 AM
Sat, Dec 3
10:00 AM
Sat, Dec 3
11:00 AM
Sat, Dec 3
12:00 PM
Sat, Dec 3
1:00 PM
Sat, Dec 3
2:00 PM
Sat, Dec 3
3:00 PM
Sat, Dec 3
4:00 PM
Sat, Dec 3
5:00 PM
Sat, Dec 3
6:00 PM
Sat, Dec 3
7:00 PM
Sat, Dec 3
8:00 PM
Sat, Dec 3
9:00 PM
Sat, Dec 3
10:00 PM
Sat, Dec 3
11:00 PM
Sun, Dec 4
12:00 AM
Sun, Dec 4
1:00 AM
Sun, Dec 4
2:00 AM
Sun, Dec 4
3:00 AM
Sun, Dec 4
4:00 AM
Sun, Dec 4
5:00 AM
Sun, Dec 4
6:00 AM
Sun, Dec 4
7:00 AM
Sun, Dec 4
8:00 AM
Sun, Dec 4
9:00 AM
Sun, Dec 4
10:00 AM
Sun, Dec 4
11:00 AM
Sun, Dec 4
12:00 PM
Sun, Dec 4
1:00 PM
Sun, Dec 4
2:00 PM
Sun, Dec 4
3:00 PM
Sun, Dec 4
4:00 PM
Sun, Dec 4
5:00 PM
Sun, Dec 4
6:00 PM
Sun, Dec 4
7:00 PM
Sun, Dec 4
8:00 PM
Condition
Clouds

Clouds

Clouds

Clouds

Clouds

Clouds

Clouds

Clouds

Clouds

Clouds

Clouds

Clouds

Clouds

Clouds

Clouds

Clouds

Clouds

Clouds

Clouds

Clouds

Clouds

Clouds

Clouds

Clouds

Clouds

Clouds

Clouds

Clouds

Clouds

Clouds

Clouds

Clouds

Clouds

Clear

Clear

Clear

Clear

Clear

Clouds

Clouds

Clouds

Clouds

Clouds

Clouds

Clouds

Clouds

Clouds

Clouds
Temperature 52°F53°F54°F54°F54°F54°F54°F54°F53°F53°F54°F58°F61°F63°F64°F66°F68°F68°F68°F65°F62°F60°F60°F59°F59°F58°F57°F56°F56°F55°F54°F54°F53°F53°F54°F58°F62°F64°F66°F68°F69°F70°F69°F66°F63°F62°F61°F60°F
Feels Like 50°F51°F51°F52°F52°F52°F52°F52°F51°F51°F52°F56°F59°F61°F62°F64°F66°F67°F67°F63°F60°F58°F58°F57°F56°F56°F55°F54°F53°F52°F52°F52°F51°F51°F52°F57°F60°F62°F65°F67°F68°F68°F68°F64°F62°F60°F59°F58°F
Cloudiness 95%95%95%96%97%99%99%99%100%100%100%100%100%100%100%98%83%64%52%43%19%30%34%49%60%66%79%81%87%74%69%66%13%9%7%7%7%7%23%32%45%52%60%65%93%90%63%47%
Visibility 6 mi6 mi6 mi6 mi6 mi6 mi6 mi6 mi6 mi6 mi6 mi6 mi6 mi6 mi6 mi6 mi6 mi6 mi6 mi6 mi6 mi6 mi6 mi6 mi6 mi6 mi6 mi6 mi6 mi6 mi6 mi6 mi6 mi6 mi6 mi6 mi6 mi6 mi6 mi6 mi6 mi6 mi6 mi6 mi6 mi6 mi6 mi6 mi
Precipitation 0%0%0%0%0%0%0%0%0%0%0%0%0%0%0%0%0%0%0%0%0%0%0%0%0%0%0%0%0%0%0%0%0%0%0%0%0%0%0%0%0%0%0%0%0%0%0%0%
Humidity 59%58%58%57%58%59%60%59%60%60%58%51%45%42%40%38%36%35%34%40%44%45%45%46%46%47%48%49%50%53%55%58%61%64%64%56%50%46%43%40%38%36%37%42%47%51%52%55%
Dew Point 38°F39°F39°F39°F40°F37°F37°F36°F36°F36°F36°F37°F36°F36°F36°F36°F37°F36°F36°F37°F36°F36°F35°F35°F34°F34°F34°F34°F34°F34°F35°F36°F36°F37°F38°F39°F39°F40°F40°F40°F39°F39°F38°F39°F39°F39°F40°F40°F
Pressure 30.12"30.12"30.12"30.12"30.12"30.12"30.12"30.12"30.12"30.12"30.12"30.15"30.15"30.15"30.12"30.09"30.06"30.03"30.03"30.03"30.06"30.09"30.09"30.09"30.12"30.12"30.12"30.12"30.12"30.12"30.09"30.09"30.09"30.09"30.09"30.09"30.09"30.09"30.06"30"29.97"29.94"29.94"29.94"29.94"29.94"29.94"29.94"
Wind Speed 0.7 mph2.1 mph1.5 mph1.1 mph1.9 mph1.8 mph1.7 mph1.9 mph1.5 mph1.8 mph1.7 mph1.3 mph0.6 mph0.6 mph1 mph2.8 mph3.8 mph4.6 mph4.1 mph1.4 mph1.7 mph2.6 mph4.1 mph4.1 mph5.5 mph5.6 mph5.7 mph4.7 mph4.9 mph3.4 mph4.2 mph4.3 mph3.9 mph4.3 mph4 mph3.4 mph2.8 mph2.8 mph3.4 mph5.8 mph6.6 mph7.3 mph8.1 mph4.4 mph4.5 mph3.6 mph5 mph5.2 mph
Wind
Direction
131°
SE
120°
ESE
143°
SE
115°
ESE
80°
E
72°
ENE
90°
E
101°
E
92°
E
86°
E
91°
E
113°
ESE
101°
E
292°
WNW
233°
SW
213°
SSW
216°
SW
204°
SSW
210°
SSW
243°
WSW
196°
SSW
178°
S
178°
S
177°
S
169°
S
166°
SSE
155°
SSE
155°
SSE
144°
SE
139°
SE
143°
SE
142°
SE
147°
SSE
144°
SE
140°
SE
149°
SSE
146°
SE
148°
SSE
196°
SSW
191°
S
194°
SSW
205°
SSW
217°
SW
225°
SW
196°
SSW
179°
S
167°
SSE
172°
S

Daily Forecast

Date High Low Precip. Humidity
Today
Dec 2

Clouds
63 °F
52 °F
0%
49%
Saturday
Dec 3

Clouds
68 °F
53 °F
0%
40%
Sunday
Dec 4

Clear
69 °F
53 °F
0%
46%
Monday
Dec 5

Clouds
66 °F
57 °F
2%
55%
Tuesday
Dec 6

Rain
57 °F
51 °F
66%
65%
Wednesday
Dec 7

Rain
52 °F
45 °F
98%
79%
Thursday
Dec 8

Clouds
53 °F
45 °F
2%
69%
Friday
Dec 9

Clear
55 °F
44 °F
0%
49%
Saturday
Dec 10

Clear
55 °F
44 °F
0%
43%
Sunday
Dec 11

Clear
58 °F
44 °F
0%
37%
Monday
Dec 12

Clouds
64 °F
47 °F
0%
22%
Tuesday
Dec 13

Clouds
54 °F
44 °F
10%
47%
Wednesday
Dec 14

Clear
50 °F
38 °F
0%
34%
Thursday
Dec 15

Clouds
57 °F
42 °F
0%
18%
Friday
Dec 16

Rain
53 °F
41 °F
71%
44%
Saturday
Dec 17

Clouds
49 °F
38 °F
0%
37%

Temperature 8-14 Day Outlook



Precipitation 8-14 Day Outlook






About Us
Contact Us
Site Map
Search Site
Advertise With Us
   
Mead.USLakes.info
THE LAKE MEAD WEBSITE

Copyright 2022, Lakes Online
Privacy    |    Legal